Location: ????????
(37.9452°N, 23.1472°E)
Time: 10:53:58
(UTC+00:00)

COSMOS 2455 - Pass Details

Date: 18 April 2024
Orbit: 898 x 911 km, 67.1° (Epoch: 19 May)

Event Time Altitude Azimuth Distance (km) Brightness Sun altitude
Rises 20:20:43 0° 329° (NNW) 3,546 7.0 -32.7°
Reaches altitude 10° 20:23:14 10° 327° (NNW) 2,601 6.1 -33.0°
Enters shadow 20:27:59 53° 298° (WNW) 1,111 3.4 -33.5°
